Date,TemperatureHighF,TemperatureAvgF,TemperatureLowF,DewpointHighF,DewpointAvgF,DewpointLowF,HumidityHigh,HumidityAvg,HumidityLow,PressureMaxIn,PressureMinIn,WindSpeedMaxMPH,WindSpeedAvgMPH,GustSpeedMaxMPH,PrecipitationSumIn
2014-1-1,42,34,29,27,19,7,90,57,32,29.96,29.77,11,6,14,0.00
2014-1-2,43,34,12,43,28,12,99,82,45,29.76,29.33,36,12,49,0.06
2014-1-3,16,10,3,12,5,-5,99,84,37,29.92,29.38,38,14,45,0.00
2014-1-4,34,24,13,34,11,-23,99,61,10,29.93,29.84,23,9,23,0.00
2014-1-5,44,39,34,36,26,17,99,61,36,29.85,29.43,21,10,30,0.02
2014-1-6,41,13,-10,23,4,-20,99,70,39,29.59,29.37,40,21,41,0.07
2014-1-7,12,-2,-13,-3,-17,-35,60,49,10,29.91,29.55,45,16,55,0.00
2014-1-8,47,27,12,1,-16,-34,44,16,10,30.06,29.90,11,5,15,0.00
2014-1-9,44,34,29,28,-13,-21,81,14,10,30.11,30.03,7,3,10,0.00
2014-1-10,47,42,32,42,29,20,99,64,41,30.05,29.78,12,4,13,0.28
2014-1-11,50,45,34,42,15,-9,93,39,10,29.78,29.38,28,10,32,0.91
2014-1-12,48,36,29,31,27,15,99,74,29,29.84,29.44,38,14,45,0.05
2014-1-13,49,40,35,36,29,16,99,67,32,29.81,29.61,17,8,24,0.05
2014-1-14,40,37,34,38,32,21,99,83,51,29.67,29.50,26,10,32,0.12
2014-1-15,37,29,20,30,25,19,99,87,50,29.64,29.55,20,10,20,0.00
2014-1-16,41,24,14,19,14,8,98,70,35,29.60,29.52,20,8,21,0.00
2014-1-17,42,30,17,27,20,15,99,69,37,29.59,29.48,27,9,27,0.00
2014-1-18,30,17,7,18,11,5,99,80,37,29.60,29.47,30,13,36,0.00
2014-1-19,35,29,26,27,22,14,99,75,50,29.63,29.51,27,9,32,0.00
2014-1-20,50,40,31,24,16,-2,50,39,20,29.59,29.53,30,13,37,0.00
2014-1-21,41,30,10,32,23,9,99,79,50,29.54,29.30,32,13,36,0.00
2014-1-22,20,9,1,9,1,-10,99,73,34,29.57,29.41,34,15,34,0.00
2014-1-23,18,11,8,8,3,-2,90,71,56,29.83,29.55,27,15,33,0.00
2014-1-24,24,10,-8,-2,-8,-14,88,48,19,29.96,29.66,20,9,20,0.00
2014-1-25,25,22,13,22,1,-28,99,53,10,29.65,29.28,44,15,44,0.09
2014-1-26,48,31,16,25,5,-25,78,39,10,29.53,29.36,35,13,49,0.00
2014-1-27,44,32,13,35,25,-3,99,76,48,29.67,29.50,27,14,31,0.00
2014-1-28,16,11,7,12,5,-9,99,78,41,29.75,29.66,21,6,26,0.00
2014-1-29,18,8,-1,8,-4,-19,97,63,25,29.81,29.61,32,12,36,0.00
2014-1-30,36,20,9,7,-3,-25,58,38,13,29.85,29.75,11,5,13,0.00
2014-1-31,54,38,27,18,-4,-17,51,18,10,29.85,29.74,10,5,14,0.00
2014-2-1,54,43,35,32,6,-5,64,23,10,29.88,29.78,11,6,17,0.00
2014-2-2,59,49,40,49,41,26,99,77,41,29.82,29.71,14,6,21,0.01
2014-2-3,50,40,31,48,37,28,99,90,45,29.88,29.58,21,9,24,0.58
2014-2-4,37,32,28,35,31,27,99,97,80,29.96,29.73,8,2,8,0.12
2014-2-5,44,35,22,36,17,-11,99,65,10,29.72,29.53,44,17,45,0.09
2014-2-6,29,21,16,29,19,15,99,94,75,29.87,29.69,25,9,29,0.00
2014-2-7,37,27,19,26,22,19,99,83,59,29.89,29.82,9,3,11,0.00
2014-2-8,41,34,30,33,29,25,99,86,64,29.85,29.75,11,4,13,0.00
2014-2-9,43,33,29,40,32,28,99,94,71,29.79,29.67,21,8,30,0.00
2014-2-10,29,26,23,29,26,23,99,99,99,29.80,29.65,19,6,24,0.00
2014-2-11,31,24,18,30,24,18,99,99,95,29.89,29.77,4,0,4,0.00
2014-2-12,22,17,14,22,16,12,99,97,89,29.89,29.49,10,4,14,0.00
2014-2-13,27,23,20,27,23,20,99,99,88,29.48,29.23,32,16,46,0.00
2014-2-14,52,35,25,30,22,12,85,65,22,29.47,29.35,36,16,38,0.08
2014-2-15,34,22,16,32,20,12,99,90,73,29.65,29.25,41,18,43,0.08
2014-2-16,39,30,18,28,23,12,99,79,59,29.77,29.60,23,14,34,0.00
2014-2-17,40,31,26,29,24,12,99,77,48,29.89,29.77,17,8,18,0.00
2014-2-18,59,41,30,37,21,-1,99,54,10,29.87,29.74,29,13,34,0.00
2014-2-19,58,51,46,48,41,29,99,72,52,29.83,29.65,25,10,30,0.15
2014-2-20,54,49,43,54,45,32,99,85,67,29.88,29.68,25,7,26,0.00
2014-2-21,54,44,32,54,29,1,99,60,16,29.73,29.56,32,14,37,0.59
2014-2-22,59,44,34,16,8,-6,43,26,10,29.87,29.70,30,12,36,0.00
2014-2-23,61,46,41,26,15,-2,50,30,14,29.79,29.68,14,8,19,0.00
2014-2-24,42,34,28,32,17,5,98,53,25,29.80,29.67,31,15,32,0.00
2014-2-25,42,36,30,18,14,9,52,40,28,29.75,29.61,21,11,25,0.00
2014-2-26,32,25,18,18,14,8,74,63,47,29.61,29.46,19,10,24,0.00
2014-2-27,29,21,14,8,-3,-25,67,38,12,29.59,29.39,39,19,42,0.06
2014-2-28,42,27,16,10,4,-2,61,38,16,29.85,29.59,16,4,16,0.00
2014-3-1,52,37,24,30,19,10,73,50,24,29.91,29.83,11,5,12,0.00
2014-3-2,62,50,38,50,40,30,99,69,45,29.90,29.67,27,7,27,0.00
2014-3-3,50,37,23,49,37,23,99,99,97,29.79,29.54,10,3,14,0.25
2014-3-4,37,25,15,29,21,15,99,85,51,29.83,29.75,9,2,11,0.02
2014-3-5,56,40,29,30,23,-3,99,58,10,29.89,29.75,11,4,13,0.00
2014-3-6,34,27,21,30,17,10,99,68,41,29.91,29.73,12,5,16,0.00
2014-3-7,46,35,27,44,33,27,99,94,72,29.73,29.65,13,7,16,0.17
2014-3-8,57,46,38,39,32,22,94,64,28,29.79,29.70,22,11,24,0.00
2014-3-9,52,44,38,37,30,20,96,61,33,29.82,29.71,30,15,32,0.00
2014-3-10,56,43,37,37,29,21,76,58,37,29.77,29.65,28,16,37,0.00
2014-3-11,70,60,48,39,25,8,69,31,10,29.94,29.87,29,8,31,0.00
2014-3-12,59,46,23,52,40,23,99,83,36,29.87,29.49,44,14,53,0.20
2014-3-13,31,23,16,23,6,-3,99,55,23,30.16,29.69,41,20,52,0.43
2014-3-14,52,39,24,16,4,-11,39,23,13,30.22,30.09,19,8,23,0.00
2014-3-15,55,47,41,37,28,17,78,49,29,30.14,30.01,26,12,33,0.00
2014-3-16,49,38,30,35,28,20,99,73,32,30.13,29.84,11,4,14,0.64
2014-3-17,30,27,24,29,26,24,99,99,99,29.90,29.78,0,0,0,0.00
2014-3-18,43,32,24,41,32,24,99,98,87,30.12,29.88,4,1,8,0.12
2014-3-19,48,40,34,43,24,-12,99,67,10,30.14,29.99,16,8,24,0.02
2014-3-20,48,41,35,42,25,9,97,59,23,30.11,30.00,32,15,35,0.00
2014-3-21,60,46,34,20,18,13,50,34,16,30.13,29.84,14,7,24,0.00
2014-3-22,60,52,45,39,30,14,63,43,27,29.87,29.80,24,10,25,0.00
2014-3-23,50,39,28,39,32,21,99,78,61,29.85,29.76,25,10,28,0.20
2014-3-24,49,34,20,22,12,-7,83,49,11,29.91,29.78,21,7,23,0.00
2014-3-25,34,27,16,34,24,16,99,89,61,29.78,29.55,30,12,30,0.04
2014-3-26,32,22,13,16,10,4,99,65,37,29.97,29.66,34,15,40,0.02
2014-3-27,50,37,24,21,13,3,50,37,23,30.07,29.96,19,8,25,0.00
2014-3-28,45,43,40,44,39,20,99,88,42,29.97,29.87,21,12,30,0.00
2014-3-29,33,32,30,20,18,15,63,58,48,29.92,29.91,30,25,36,0.00
2014-3-30,40,31,25,25,22,18,86,70,45,30.20,29.82,47,30,53,0.08
2014-3-31,72,50,32,22,12,-4,65,30,10,30.33,30.18,34,11,34,0.00
2014-4-1,72,60,53,35,15,-1,39,18,10,30.35,30.27,17,7,21,0.00
2014-4-2,77,64,57,44,30,9,44,29,14,30.35,30.28,20,8,23,0.00
2014-4-3,72,61,52,55,48,33,99,63,34,30.32,30.18,20,8,22,0.08
2014-4-4,65,59,51,54,51,43,93,75,55,30.20,30.05,22,8,23,0.00
2014-4-5,55,45,35,48,34,26,95,69,33,30.26,30.08,27,13,31,0.00
2014-4-6,56,44,34,36,31,25,74,61,36,30.32,30.23,8,3,10,0.00
2014-4-7,49,42,36,39,28,0,99,67,13,30.24,29.88,27,7,30,0.96
2014-4-8,50,42,37,38,23,-10,91,58,10,29.96,29.83,32,14,36,0.01
2014-4-9,52,43,38,39,33,25,98,71,36,30.30,29.95,20,10,24,0.00
2014-4-10,65,52,40,34,28,26,57,43,24,30.41,30.28,19,7,20,0.00
2014-4-11,71,58,50,37,33,28,53,40,24,30.39,30.30,18,7,24,0.00
2014-4-12,73,61,50,49,44,33,82,55,34,30.45,30.34,20,8,20,0.00
2014-4-13,74,63,54,53,49,44,82,62,43,30.40,30.31,17,9,22,0.00
2014-4-14,58,54,52,54,43,22,96,70,27,30.30,30.04,21,10,22,0.41
2014-4-15,56,41,22,31,23,2,92,55,18,30.10,29.91,46,18,52,0.32
2014-4-16,53,34,19,19,13,-3,83,49,10,30.50,30.08,34,10,35,0.00
2014-4-17,59,41,26,24,20,15,76,46,19,30.58,30.49,6,3,10,0.00
2014-4-18,50,43,36,36,30,20,80,61,46,30.55,30.37,8,2,8,0.00
2014-4-19,54,46,40,45,38,30,95,74,57,30.41,30.30,15,5,19,0.13
2014-4-20,69,52,40,38,28,8,85,47,10,30.45,30.37,11,4,13,0.00
2014-4-21,72,56,42,44,32,24,63,43,17,30.40,30.20,15,6,16,0.00
2014-4-22,62,56,53,53,46,40,96,69,51,30.19,30.01,21,11,24,0.04
2014-4-23,59,50,40,45,24,10,78,40,17,30.21,30.01,25,13,28,0.00
2014-4-24,67,53,43,38,29,20,54,39,25,30.30,30.20,13,6,17,0.00
2014-4-25,54,53,51,51,43,38,98,69,55,30.19,30.08,14,8,20,0.00
2014-4-26,54,54,54,43,43,43,65,65,65,30.08,30.08,7,7,16,0.00
2014-4-27,75,57,0,52,43,36,67,60,24,30.08,29.92,14,7,18,0.12
2014-4-28,68,59,53,60,55,50,95,86,69,29.94,29.83,13,5,18,0.15
2014-4-29,57,53,47,54,48,42,95,84,66,29.93,29.80,10,4,14,1.00
2014-4-30,58,54,51,48,42,33,80,63,49,29.93,29.83,14,9,22,0.04
2014-5-1,63,53,45,51,44,27,95,72,39,29.86,29.77,22,10,25,0.00
2014-5-2,62,50,42,38,34,31,77,57,31,29.86,29.79,23,10,29,0.00
2014-5-3,64,52,42,40,38,35,91,61,37,29.90,29.81,24,12,26,0.00
2014-5-4,71,61,50,47,41,37,69,49,30,29.97,29.89,30,12,30,0.00
2014-5-5,62,62,61,46,45,44,58,55,52,29.94,29.92,15,8,17,0.00
2014-5-6,81,68,60,50,38,17,65,39,10,29.99,29.85,30,13,34,0.00
2014-5-7,78,69,61,60,52,36,77,57,35,30.11,29.99,11,6,14,0.00
2014-5-8,83,69,59,57,48,36,71,50,20,30.18,30.08,12,5,14,0.00
2014-5-9,74,64,56,62,55,50,99,74,52,30.14,30.04,17,6,25,0.12
2014-5-10,70,61,57,61,56,52,97,85,70,30.07,30.00,12,4,15,0.06
2014-5-11,80,65,54,59,55,44,99,75,28,30.16,30.03,16,6,23,0.00
2014-5-12,80,69,60,63,59,51,92,71,37,30.19,30.11,8,4,11,0.00
2014-5-13,85,72,63,64,61,50,97,72,34,30.16,30.09,9,3,11,0.00
2014-5-14,79,68,60,63,60,56,96,75,46,30.14,30.02,10,4,12,0.00
2014-5-15,62,55,42,61,51,33,99,86,71,30.02,29.86,17,8,23,2.52
2014-5-16,55,44,38,42,34,14,96,71,36,29.93,29.81,23,14,26,0.01
2014-5-17,57,45,36,42,37,31,97,76,54,30.07,29.94,21,6,21,0.00
2014-5-18,62,49,41,47,41,32,96,74,55,30.11,30.06,7,3,9,0.00
2014-5-19,67,54,43,47,44,37,93,68,47,30.18,30.10,12,3,12,0.00
2014-5-20,72,60,50,59,52,46,94,76,60,30.17,30.07,11,4,14,0.00
2014-5-21,74,65,0,60,56,52,85,70,55,30.07,29.90,25,9,29,0.00
2014-5-22,72,62,55,63,57,49,99,83,70,29.96,29.84,36,12,53,0.21
2014-5-23,71,63,56,62,56,48,95,78,52,29.97,29.89,19,9,27,0.00
2014-5-24,75,61,48,48,44,34,92,58,23,30.02,29.92,18,6,18,0.00
2014-5-25,73,63,53,61,54,44,99,73,46,30.05,29.99,8,2,10,0.00
2014-5-26,80,67,57,65,59,54,99,78,54,30.08,29.99,13,4,14,0.00
2014-5-27,76,65,61,66,62,60,99,89,65,30.03,29.93,13,6,18,0.01
2014-5-28,78,67,61,66,60,54,99,80,54,29.98,29.91,15,6,16,0.00
2014-5-29,78,68,62,67,62,57,97,82,56,30.00,29.92,6,2,8,0.04
2014-5-30,77,65,58,67,60,51,98,83,57,30.01,29.94,8,3,12,0.06
2014-5-31,74,63,58,65,59,55,98,88,65,30.08,29.99,6,2,8,0.02
2014-6-1,65,58,53,59,55,51,96,90,80,30.15,30.08,5,2,8,0.00
2014-6-2,77,63,51,62,55,48,93,78,56,30.12,30.01,7,2,10,0.00
2014-6-3,71,62,58,64,59,49,99,90,70,30.01,29.91,15,7,17,0.00
2014-6-4,83,68,60,66,62,60,99,84,49,29.92,29.75,11,5,15,0.11
2014-6-5,72,66,60,66,64,60,99,93,78,29.82,29.69,18,7,22,0.11
2014-6-6,77,66,57,62,58,53,99,77,47,29.89,29.79,11,4,14,0.00
2014-6-7,77,68,57,67,62,52,99,81,66,29.94,29.86,5,2,7,0.00
2014-6-8,78,68,62,70,64,60,99,87,59,29.86,29.79,8,3,9,0.15
2014-6-9,80,67,56,68,62,56,99,86,52,29.86,29.79,10,3,13,0.22
2014-6-10,84,71,62,69,63,57,99,78,55,29.91,29.83,11,4,15,0.02
2014-6-11,76,66,59,68,62,58,99,90,62,29.88,29.78,11,4,17,0.08
2014-6-12,77,64,59,67,61,59,99,92,67,29.84,29.77,8,2,11,0.45
2014-6-13,75,63,58,63,60,55,99,89,59,29.84,29.76,12,5,14,0.08
2014-6-14,81,68,0,63,56,43,99,69,30,30.00,29.84,8,4,11,0.00
2014-6-15,81,69,59,67,60,47,95,74,55,30.08,29.99,7,2,8,0.00
2014-6-16,87,72,64,68,63,56,92,75,35,30.13,30.06,6,2,11,0.00
2014-6-17,82,72,66,68,63,60,94,76,57,30.12,30.04,12,3,18,0.00
2014-6-18,86,73,66,70,64,59,99,76,48,30.09,29.92,11,4,14,0.00
2014-6-19,82,71,65,70,65,62,99,83,56,29.94,29.86,15,7,17,0.00
2014-6-20,84,69,63,70,64,59,99,85,58,29.89,29.78,14,6,17,0.00
2014-6-21,78,67,62,69,64,62,99,92,64,29.78,29.68,20,7,20,0.02
2014-6-22,82,70,62,65,62,55,99,78,42,29.81,29.68,8,5,14,0.01
2014-6-23,79,68,62,69,65,61,99,91,69,29.90,29.79,5,1,6,0.00
2014-6-24,78,68,63,68,65,62,99,91,69,29.91,29.81,8,2,8,0.11
2014-6-25,75,66,61,69,65,61,99,96,74,29.82,29.77,9,5,15,0.07
2014-6-26,85,73,63,66,64,60,99,77,45,29.85,29.77,11,6,17,0.00
2014-6-27,80,74,66,68,65,64,99,74,61,29.93,29.79,4,3,8,0.00
2014-6-28,72,66,63,69,65,62,99,97,83,30.00,29.91,8,2,8,0.06
2014-6-29,72,66,62,69,65,62,99,98,86,30.00,29.91,8,1,8,0.78
2014-6-30,79,68,61,71,65,61,99,92,69,29.91,29.79,4,1,8,0.05
2014-7-1,85,73,62,74,68,62,99,86,61,29.82,29.75,7,2,9,0.01
2014-7-2,86,74,66,73,68,64,99,83,59,29.82,29.76,7,3,11,0.00
2014-7-3,82,70,62,71,66,61,99,89,66,29.83,29.74,13,5,14,0.01
2014-7-4,72,62,0,61,55,47,99,73,42,30.00,29.80,17,9,18,0.00
2014-7-5,78,64,0,60,53,47,87,65,47,30.05,29.87,8,3,11,0.00
2014-7-6,78,66,56,64,58,53,92,77,56,29.91,29.80,8,2,8,0.00
2014-7-7,81,70,61,67,62,56,99,78,58,29.81,29.71,9,4,13,0.00
2014-7-8,82,69,61,67,62,56,99,80,54,29.77,29.70,15,5,18,0.00
2014-7-9,78,69,64,68,64,59,99,84,58,29.80,29.69,11,4,15,0.00
2014-7-10,78,67,61,70,64,61,99,91,66,29.87,29.76,7,2,8,0.00
2014-7-11,84,71,61,69,64,61,99,81,54,29.96,29.85,4,1,8,0.00
2014-7-12,83,71,62,70,66,62,99,85,61,29.96,29.90,6,2,8,0.00
2014-7-13,82,72,66,70,67,63,99,85,64,29.91,29.80,10,3,10,0.00
2014-7-14,86,73,65,72,67,63,99,84,54,29.81,29.67,11,3,17,0.00
2014-7-15,73,66,59,68,64,59,99,94,76,29.69,29.58,11,5,17,0.00
2014-7-16,70,61,52,58,54,50,99,80,54,29.71,29.59,12,6,12,0.00
2014-7-17,76,63,54,60,53,47,86,71,47,29.84,29.70,5,3,8,0.00
2014-7-18,62,59,57,61,58,55,99,96,83,29.91,29.83,4,1,8,0.01
2014-7-19,58,58,56,58,57,56,99,99,99,29.88,29.81,8,2,9,0.17
2014-7-20,77,63,55,70,62,55,99,96,76,29.84,29.78,5,2,7,0.01
2014-7-21,77,66,62,70,65,62,99,96,77,29.89,29.81,6,1,8,0.01
2014-7-22,80,69,63,71,66,62,99,92,65,29.91,29.85,4,1,7,0.04
2014-7-23,82,70,63,71,66,63,99,90,63,29.92,29.78,10,3,11,0.01
2014-7-24,78,67,60,71,65,60,99,95,71,29.79,29.72,14,5,16,0.14
2014-7-25,79,68,58,69,64,58,99,88,67,29.86,29.78,8,2,8,0.01
2014-7-26,83,70,62,69,63,50,99,81,37,29.86,29.79,12,4,12,0.00
2014-7-27,82,70,64,72,66,60,99,89,69,29.82,29.66,24,7,36,0.08
2014-7-28,69,63,56,64,59,55,99,87,68,29.74,29.62,26,11,31,0.12
2014-7-29,70,61,52,56,53,47,99,79,47,29.81,29.69,11,6,14,0.00
2014-7-30,73,60,49,60,53,49,99,77,52,29.88,27.76,6,3,10,0.00
2014-7-31,68,61,57,64,57,51,99,87,73,29.92,29.86,3,1,5,0.21
2014-8-1,59,57,54,59,57,54,99,99,94,29.92,29.86,7,2,14,0.51
2014-8-2,76,63,58,69,62,58,99,95,78,29.91,29.85,4,1,7,0.05
2014-8-3,78,67,57,64,60,56,99,80,48,29.91,29.85,9,3,11,0.00
2014-8-4,80,68,57,67,61,49,99,81,40,29.91,29.85,4,1,6,0.00
2014-8-5,82,68,61,69,64,59,99,85,57,29.89,29.82,7,2,10,0.01
2014-8-6,76,67,59,66,62,59,99,87,67,29.85,29.79,11,5,15,0.00
2014-8-7,78,68,60,66,61,58,99,80,55,29.86,29.77,11,5,12,0.00
2014-8-8,66,63,61,66,63,59,99,98,87,29.91,29.84,5,2,10,0.76
2014-8-9,75,64,59,72,64,59,99,98,89,29.88,29.82,8,2,8,0.06
2014-8-10,67,61,58,66,60,58,99,99,99,29.88,29.82,7,2,8,0.47
2014-8-11,75,65,61,72,65,61,99,98,88,29.87,29.76,4,1,5,0.80
2014-8-12,79,69,63,72,66,63,99,92,70,29.77,29.64,12,4,14,0.32
2014-8-13,69,60,54,63,57,54,99,90,69,29.81,29.66,19,10,24,0.01
2014-8-14,74,63,52,61,56,52,99,80,56,29.84,29.77,11,4,15,0.00
2014-8-15,77,65,57,63,59,56,99,82,57,29.85,29.77,10,5,15,0.00
2014-8-16,79,68,59,61,57,49,94,72,39,29.85,29.79,8,4,14,0.00
2014-8-17,76,69,62,67,62,54,98,81,68,29.86,29.80,11,3,14,0.00
2014-8-18,77,68,64,71,66,63,99,93,81,29.81,29.64,14,4,21,0.20
2014-8-19,78,68,63,68,65,62,99,89,67,29.76,29.66,13,6,17,0.00
2014-8-20,82,70,63,71,66,63,99,88,64,29.90,29.75,21,5,26,0.01
2014-8-21,80,69,61,70,65,59,98,87,69,29.95,29.84,13,6,19,0.00
2014-8-22,82,71,65,70,68,64,99,91,67,29.92,29.83,16,7,26,0.11
2014-8-23,80,70,63,72,67,62,99,92,71,29.85,29.78,18,7,18,0.11
2014-8-24,68,63,59,66,62,59,99,98,93,29.90,29.79,7,2,11,0.08
2014-8-25,76,64,56,64,59,56,99,87,63,29.92,29.87,8,3,8,0.01
2014-8-26,80,64,52,65,58,52,99,83,54,29.94,29.88,5,2,10,0.00
2014-8-27,84,68,57,60,56,45,99,68,31,29.91,29.84,9,3,9,0.00
2014-8-28,86,72,64,70,65,57,96,79,60,29.89,29.83,8,3,12,0.00
2014-8-29,82,71,64,72,67,63,98,89,67,29.97,29.87,5,2,8,0.00
2014-8-30,83,72,63,70,66,61,99,84,59,30.00,29.93,5,2,10,0.00
2014-8-31,82,71,64,73,68,64,99,90,65,29.96,29.91,8,2,8,0.19
2014-9-1,84,72,66,69,66,62,98,81,55,29.95,29.88,11,3,11,0.00
2014-9-2,82,71,62,73,67,61,99,87,72,29.92,29.81,11,4,17,0.22
2014-9-3,84,70,61,71,66,60,99,87,61,29.94,29.81,10,3,10,0.20
2014-9-4,78,67,62,72,66,62,99,96,79,29.99,29.91,8,2,10,0.43
2014-9-5,81,68,62,73,67,62,99,94,66,30.01,29.91,4,2,6,0.07
2014-9-6,83,69,64,73,67,63,99,93,62,29.93,29.80,6,2,7,0.24
2014-9-7,78,67,61,70,65,60,99,94,72,29.89,29.82,8,3,8,0.74
2014-9-8,65,62,59,64,62,58,99,99,98,29.91,29.86,4,3,8,1.77
2014-9-9,75,63,0,71,63,58,99,97,84,29.94,29.88,5,2,7,0.06
2014-9-10,70,63,60,67,62,60,99,97,89,29.95,29.86,8,2,11,0.08
2014-9-11,78,68,60,71,65,60,99,92,74,29.90,29.84,12,4,18,0.25
2014-9-12,77,67,63,71,66,61,99,95,79,29.93,29.87,6,2,9,0.92
2014-9-13,71,63,56,68,62,55,99,97,87,29.99,29.87,12,4,15,0.31
2014-9-14,61,55,51,61,55,51,99,99,95,30.04,29.97,4,2,6,0.06
2014-9-15,71,62,55,67,61,54,99,98,86,30.00,29.93,8,2,8,0.01
2014-9-16,74,62,57,68,61,57,99,96,80,29.93,29.81,20,7,24,0.01
2014-9-17,72,60,54,63,58,54,99,94,71,29.83,29.75,6,2,8,0.01
2014-9-18,72,61,55,63,58,54,99,92,60,29.87,29.75,4,1,6,0.00
2014-9-19,65,59,56,63,58,56,99,98,89,30.01,29.87,8,2,10,0.08
2014-9-20,77,63,52,62,57,50,99,83,48,30.01,29.87,14,1,14,0.01
2014-9-21,72,62,55,66,60,54,99,94,76,29.88,29.71,15,6,21,0.15
2014-9-22,64,54,47,56,51,47,99,89,65,29.95,29.75,21,7,21,0.01
2014-9-23,54,48,43,51,48,43,99,97,85,30.06,29.94,8,2,8,0.00
2014-9-24,66,55,43,49,45,24,99,70,45,30.09,30.02,7,4,8,0.01
2014-9-25,64,61,58,64,52,49,99,73,63,30.06,29.99,4,3,8,0.14
2014-9-26,70,60,55,64,58,55,99,95,78,30.02,29.96,6,2,8,0.01
2014-9-27,73,60,53,60,56,52,99,89,60,30.02,29.96,7,2,9,0.01
2014-9-28,75,60,51,64,57,51,99,90,57,30.00,29.90,5,1,7,0.01
2014-9-29,69,60,56,63,59,56,99,96,76,29.90,29.78,4,1,5,0.01
2014-9-30,73,63,56,63,57,52,99,83,50,29.78,29.72,9,3,11,0.01
2014-10-1,74,63,56,60,56,50,98,80,45,29.88,29.76,6,2,8,0.00
2014-10-2,75,64,56,62,57,52,99,80,46,29.94,29.86,8,2,12,0.00
2014-10-3,61,59,54,61,58,53,99,98,93,29.86,29.61,15,5,17,0.30
2014-10-4,55,43,36,54,36,28,99,79,56,29.62,29.52,28,12,36,0.04
2014-10-5,59,43,32,39,32,19,99,71,22,29.74,29.59,14,6,18,0.00
2014-10-6,62,52,45,54,44,34,99,73,54,29.79,29.72,14,5,19,0.33
2014-10-7,63,53,49,56,50,41,99,88,67,29.84,29.75,14,5,17,0.12
2014-10-8,66,59,54,58,52,44,97,77,59,29.87,29.75,25,8,28,0.09
2014-10-9,78,61,53,60,52,46,99,76,49,29.95,29.84,13,5,24,0.01
2014-10-10,71,62,58,63,59,56,99,89,73,29.90,29.81,10,4,15,0.02
2014-10-11,70,61,57,63,58,53,98,91,78,29.88,29.75,11,4,16,0.28
2014-10-12,58,51,49,56,18,-5,93,34,10,29.97,29.85,5,2,8,0.18
2014-10-13,60,56,50,60,49,3,99,81,18,29.99,29.89,14,4,14,0.21
2014-10-14,61,60,60,60,60,59,99,97,97,29.89,29.59,15,14,21,0.15
2014-10-15,64,56,45,59,46,-8,99,78,10,29.65,29.57,17,11,19,0.38
2014-10-16,49,46,44,38,0,-9,73,19,10,29.65,29.53,16,7,24,0.04
2014-10-17,71,55,43,49,39,8,76,57,22,29.69,29.61,21,9,23,0.00
2014-10-18,58,50,39,50,41,32,95,70,50,29.70,29.57,24,14,30,0.04
2014-10-19,63,46,38,39,27,4,76,52,10,29.85,29.69,27,10,29,0.00
2014-10-20,66,52,45,47,42,38,86,71,46,29.85,29.73,10,4,14,0.00
2014-10-21,55,48,42,42,39,33,83,72,53,29.74,29.66,21,9,25,0.00
2014-10-22,43,40,35,36,34,29,91,78,69,29.82,29.69,28,17,34,0.00
2014-10-23,56,43,36,38,34,28,87,73,43,29.82,29.76,20,15,24,0.00
2014-10-24,67,51,42,35,24,5,76,41,10,29.82,29.75,17,6,17,0.00
2014-10-25,63,52,44,47,31,0,80,53,10,29.80,29.73,20,11,25,0.00
2014-10-26,66,57,51,48,35,18,80,50,17,29.79,29.65,22,12,27,0.00
2014-10-27,75,62,54,49,41,33,76,49,24,29.91,29.78,16,7,17,0.00
2014-10-28,75,64,56,51,43,30,81,49,24,29.91,29.83,10,6,15,0.00
2014-10-29,57,50,41,52,44,33,91,79,51,29.83,29.74,17,9,21,0.01
2014-10-30,58,45,37,37,29,16,86,58,22,29.79,29.71,17,7,21,0.00